Regional Weather Roundup
Issued by NWS Wakefield, VA

Home | Current Version | Previous Version | Text Only | Print | Product List | Glossary On
Versions: 1 2 3 4 5 6 7 8 9 10 11 12 13 14 15 16 17 18 19 20 21 22 23 24 25 26 27
000
ASUS41 KAKQ 231510
RWRAKQ

REGIONAL WEATHER ROUNDUP
NATIONAL WEATHER SERVICE WAKEFIELD VA
1100 AM EDT THU OCT 23 2014

Note: "fair" indicates few or no clouds below 12,000 feet with no
significant weather and/or obstructions to visibility. * = Denotes
station may not report precipitation (e.g., rain,snow,etc.),
thunder or fog.

VAZ042-051-052>054-056-231600-
NORTHERN VIRGINIA

CITY           SKY/WX    TMP DP  RH WIND       PRES   REMARKS
WASH NATIONAL  PTSUNNY   60  43  53 NW16G26   29.91R
DULLES         MOSUNNY   57  43  59 NW24G33   29.91F
FORT BELVOIR   PTSUNNY   58  43  58 NW23G30   29.90F
QUANTICO       MOSUNNY   60  43  53 N26G38    29.91F
FREDERICKSBRG* SUNNY     61  45  54 NW16G28   29.91F
STAFFORD*      MOSUNNY   59  43  54 NW17G35   29.95F
WARRENTON      SUNNY     62  50  66 NW15G25   29.92F
CULPEPER*      SUNNY     61  45  55 NW15G25   29.95R
MANASSAS*      SUNNY     59  45  58 NW23G35   29.92F
LEESBURG*      MOSUNNY   59  46  63 NW24G36   29.93S
WINCHESTER     MOSUNNY   55  37  50 NW17G31   29.97S
FRONT ROYAL*   CLOUDY    57  43  58 NW12G21   29.98F
LURAY*         SUNNY     57  45  62 NW12G17   29.99F
$$

VAZ048-049-060>072-079>083-231600-
CENTRAL AND SOUTH CENTRAL VIRGINIA...AND NORTH CENTRAL NORTH CAROLINA

CITY           SKY/WX    TMP DP  RH WIND       PRES   REMARKS
RICHMOND       MOSUNNY   60  43  53 NW17G26   29.92F
CHESTERFIELD*  SUNNY    N/A N/A N/A NW14G24   29.95S
PETERSBURG*    SUNNY     58  41  52 NW10G20   29.95F
HANOVER        MOSUNNY   58  44  60 NW16G22   29.94F
TAPPAHANNOCK*  MOSUNNY   60  40  49 NW7G17    29.91S
CHARLOTTSVILLE SUNNY     60  42  51 NW13G20   29.96S
ORANGE*        SUNNY     61  45  55 NW7       29.96S
LOUISA*        SUNNY     61  45  55 NW12G21   29.94S
FARMVILLE*     SUNNY     61  43  51 NW8       29.96F
CREWE*         SUNNY     59  42  53 NW10G16   29.97F
FORT PICKETT*  SUNNY     58  43  57 NW15G23   29.96F
LUNENBURG*     SUNNY     58  43  57 NW8       29.97F
SOUTH HILL*    SUNNY     61  45  55 NW8       30.03S
LAWRENCEVILLE* SUNNY     58  44  58 NW10G20   29.95F
ROANOKE RAPIDS SUNNY     59  43  55 NW10      29.98S
RALEIGH        SUNNY     58  41  53 VRB6      30.02S
$$

VAZ088>098-231600-
SOUTHEAST VIRGINIA

CITY           SKY/WX    TMP DP  RH WIND       PRES   REMARKS
NORFOLK        SUNNY     59  43  55 NW15G30   29.88F
VIRGINIA BEACH MOSUNNY   60  45  57 NW24G33   29.87F
NORFOLK NAVAL  MOSUNNY   62  45  53 NW21G29   29.90F
WEST POINT*    SUNNY     61  43  51 NW10G20   29.91F
NEWPORT NEWS   SUNNY     62  44  51 NW13G25   29.89F
LANGLEY AFB    SUNNY     59  45  60 NW18G25   29.89F
FORT EUSTIS    SUNNY     59  42  53 NW16G25   29.88F
WILLIAMSBURG*  SUNNY     63  46  55 NW16G25   29.91F
HR EXEC AP*    SUNNY     57  45  62 NW9G18    29.92F
FRANKLIN*      SUNNY     59  43  55 NW12G20   29.92F
WAKEFIELD      SUNNY     59  43  55 NW12G23   29.93F
$$

VAZ020-022-025-037-045-231600-
WEST CENTRAL AND SOUTHWEST VIRGINIA

CITY           SKY/WX    TMP DP  RH WIND       PRES   REMARKS
STAUNTON*      SUNNY     56  40  55 NW18G25   30.04S
HOT SPRINGS VA CLOUDY    42  38  85 NW15G30   30.05S
LYNCHBURG      SUNNY     59  40  49 VRB6      30.04S
DANVILLE       SUNNY     60  40  47 NW14      30.04R
SOUTH BOSTON*  NOT AVBL
MARTINSVILLE   SUNNY     58  40  50 NW13G22   30.09R
ROANOKE        MOSUNNY   56  38  50 NW8G18    30.09S
BLACKSBURG     MOSUNNY   52  43  71 NW10G16   30.13S
DUBLIN*        CLOUDY    49  40  71 NW3       30.15F
MARION*        CLOUDY    47  37  68 NW10G16   30.19F
HILLSVILLE*    CLOUDY    46  38  73 NW17G25   30.13R
RICHLANDS*     CLOUDY    46  40  81 NW6       30.20S
WISE*          CLOUDY    45  41  87 N7        30.22S
ABINGDON*      CLOUDY    48  39  71 NE3       30.21R
$$

MDZ021>025-VAZ099-100-231600-
SOUTHERN MARYLAND AND THE DELMARVA PENINSULA

CITY           SKY/WX    TMP DP  RH WIND       PRES   REMARKS
PATUXENT RIVER PTSUNNY   57  44  62 NW22G30   29.86F
BAY BRIDGE APT   N/A     55  43  62 NW16G28   29.85S
LEONARDTOWN    CLOUDY    55  43  62 NW12G21   29.88F
DOVER          CLOUDY    52  50  92 NW15      29.79R
GEORGETOWN     CLOUDY    54  46  74 NW9G20    29.81S
EASTON         CLOUDY    57  48  72 NW10G18   29.87S
CAMBRIDGE      CLOUDY    55  45  67 NW15G22   29.84S VSB<1/4
SALISBURY      CLOUDY    56  46  69 NW15G26   29.82S
OCEAN CITY     CLOUDY    54  47  77 NW16G25   29.79S
WALLOPS ISLAND CLOUDY    56  47  71 NW15G24   29.82F
ACCOMACK*      CLOUDY    55  43  62 NW18G31   29.84S
$$

NCZ012>017-030>032-231600-
EASTERN NORTH CAROLINA

CITY           SKY/WX    TMP DP  RH WIND       PRES   REMARKS
ELIZABETH CITY SUNNY     61  44  53 NW16G26   29.91S
AHOSKIE*       SUNNY     58  42  57 NW3       29.96S
EDENTON*       SUNNY     60  45  56 NW16G26   29.93F
CURRITUCK*     SUNNY     58  42  56 NW14G25   29.90F
KILL DEVIL HLS MOSUNNY   57  45  63 W12G17    29.89S
MANTEO         PTSUNNY   57  45  63 NW16G24   29.91S
CAPE HATTERAS  MOSUNNY   57  46  66 NW15G28   29.93S
TARBORO*       SUNNY     60  44  54 NW9G20    29.99F
GOLDSBORO      SUNNY     59  48  66 NW7       29.99S
WASHINGTON     SUNNY     59  43  56 NW12      29.98S
GREENVILLE     SUNNY     59  43  55 NW9G16    30.00S
NEW BERN       SUNNY     61  43  51 NW10G17   29.99F
WILMINGTON     SUNNY     58  43  57 NW12      30.02F
$$

VAZ048-231600-
ELSEWHERE

CITY           SKY/WX    TMP DP  RH WIND       PRES   REMARKS
HARRISBURG PA  CLOUDY    55  43  63 N20G26    29.88S
BALTIMORE      PTSUNNY   57  43  59 NW14G28   29.86S
ANNAPOLIS      CLOUDY    58  45  62 NW23      29.86S
ANDREWS AFB    MOSUNNY   58  45  62 NW15G25   29.88S
WILMINGTON DE  LGT RAIN  55  46  71 NW17G28   29.81S
PHILADELPHIA   LGT RAIN  52  47  83 NW23      29.79R
WILDWOOD NJ*   CLOUDY    52  45  76 NW13G20   29.78S
ATLANTIC CITY  CLOUDY    51  48  89 NW18      29.73S
HENDERSON NC   SUNNY     58  40  51 NW9       30.01S
GREENSBORO     SUNNY     57  40  52 NW12G20   30.06R
ROCKY MOUNT    SUNNY     61  43  51 NW10      30.00S
FAYETTEVILLE   SUNNY     61  41  47 N10       30.04S
CHARLOTTE      SUNNY     58  38  47 NW10      30.10S
$$

VAZ100-231600-
MARINE

STATION/POSITION TIME  TEMP    WIND        PRES    WAVE   SWELL
                       AIR SEA DIR/SP/G            HT/PER HT/PER
                 (UTC) (F)     (DEG/KT/KT) (MB)    (FT/S) (FT/S)
44066 TX TWR #4  1500   58 67  340/ 23/ 29 1000.9R  10/ 7
CAPE MAY NJ      1500   54 65  330/ 13/ 28 1007.5S
LEWES DE         1500   54 59  320/ 29/ 33 1008.3S
15NM E FENWICK I 1500   54 65  300/ 23/ 29 1006.9R   9/ 9   3/ 9
OCEAN-CITY-INLET 1500   54 64  320/ 14/ 17 1008.4F
WACHAPREAGUE VA  1500   57 60  300/  6/ 16 1010.2S
THOMAS POINT MD  1500   57 62  330/ 17/ 21 1011.9R
GOOSES REEF MD   1500   57     320/ 19/ 23 1011.4S
COVE POINT MD    1500   56     330/ 20/ 25 1010.9S
SOLOMONS ISLAND  1500      64                N/A
BISHOPS HEAD MD  1500   56 54  320/ 19/ 23 1010.4F
PINEY POINT MD   1500          330/ 28/ 31   N/A
POTOMAC MD       1500   57     330/ 23/ 27 1010.8F
CAMBRIDGE MD     1500   56 60  320/ 15/ 22 1010.3F
LEWISETTA VA     1500   57 60  320/ 18/ 24 1011.3F
RAPPAHANNOCK LGT 1500          310/ 28/ 33 1011.2F
STINGRAY PT      1500   58     320/ 19/ 23 1011.8F
YORK RVR RNG VA  1500   57     330/ 21/ 24 1011.4F
YORKTOWN VA      1500   57 65  320/ 24/ 26 1011.8F
JAMESTOWN VA     1500   56     340/ 17/ 23   N/A
DOMINION TERM VA 1500   57     320/ 18/ 26 1012.1F
KIPTOPEKE VA     1500      66  320/ 23/ 28   N/A
CHES BAY BRIDGE  1500   56 66  300/ 26/ 31 1011.2F
CAPE HENRY VA    1500   56     320/ 24/ 30 1010.3F
CHESAPEAKE LGHT  1400   56     320/ 30/ 34 1011.7R
WILLOUBY STN VA  1500   57     310/ 19/ 24 1010.7F
S CRANEY ISL VA  1500          290/ 14/ 22 1011.8F
CAPE HENRY BUOY  1500      68                N/A     6/ 5   2/11
1ST LANDING BUOY 1500   58     310/ 23/ 29 1011.1F
CAPE CHARLES BUO 1500      67                N/A     5/ 5   2/10
64NM E OF VA BCH 1500   60 70  310/ 25/ 31 1008.8R  10/ 6   3/10
DUCK PIER NC     1500   56 67  320/ 18/ 22 1011.2F
44100 DUCK FRF   1500      69                N/A     7/ 7   2/11
44056 DUCK FRF   1500                        N/A     5/10   2/11
OREGON INLET NC  1500   56 63  300/ 20/ 26 1012.2F
HATTERAS NC      1500   57 62  310/ 20/ 23 1013.8F
CAPE LOOKOUT NC  1400   57     320/ 13/ 16 1015.1S
$$



USA.gov is the U.S. government's official web portal to all federal, state and local government web resources and services.